Weather in Tovarkovo

Russia / Kaluga Oblast     54°40′38″N   35°56′33″E
temp.,
°C
wind,
m/s
gust,
m/s
humid.,
%
clouds,
%
prec.,
mm/h
press.,
hPa
HPBL,
m
8 march, mon
mon800:00−6wsw5138442 0.0 998500
03:00−7wsw4119168 0.0 998428
06:00−6w51390100 0.1 998720
09:00−7wnw61087100 0.3 10001103
12:00−6nw578293 0.0 1003764
15:00−5nw468096 0.1 1005888
18:00−8wnw3487100 0.0 1007121
21:00−10nnw239587 0.1 101080
9 march, tue
tue900:00−12n359581 0.0 1012103
03:00−15n349671 0.0 101475
06:00−16nnw35963 0.0 101586
09:00−14nnw35922 0.0 1017254
12:00−10nnw358275 0.0 1018715
15:00−9nnw457988 0.1 10191007
18:00−12nnw3588100 0.1 1020157
21:00−16n2392100 0.1 102331
10 march, wed
wed1000:00−18n23943 0.0 102533
03:00−20n22962 0.0 102626
06:00−22nne22961 0.0 102726
09:00−20nne249413 0.0 1029185
12:00−16nne237944 0.0 1030433
15:00−14nne347523 0.0 1030555
18:00−17ne12830 0.0 103021
21:00−19ne22850 0.0 103220
11 march, thu
thu1100:00−21ne12880 0.0 103320
03:00−22ese11880 0.0 103420
06:00−22sw11890 0.0 103520
09:00−18sw12844 0.0 103599
12:00−13s22710 0.0 1034320
15:00−10s23690 0.0 1033459
18:00−14ssw23850 0.0 103229
21:00−17s34890 0.0 103370
12 march, fri
fri1200:00−19s36890 0.0 103395
03:00−20s38850 0.0 1032147
06:00−20s48900 0.0 1031179
09:00−16s510870 0.0 1030285
12:00−10s611830 0.0 1027458
15:00−7s7128211 0.0 1026589
18:00−9s71485100 0.0 1024594
21:00−9s71684100 0.0 1023716